Hourly Weather Godzieszowek

Today, 27 November, Friday

Time Temperature Precipitation Wind Pressure Humidity
00:00 +3°C° 0 mm 2 mps 744 mmHg 79%
01:00 +3°C° 0 mm 2 mps 744 mmHg 83%
02:00 +3°C° 0 mm 2 mps 744 mmHg 82%
03:00 +4°C° 0 mm 1 mps 744 mmHg 82%
04:00 +5°C° 0 mm 1 mps 744 mmHg 82%
05:00 +4°C° 0.1 mm 1 mps 744 mmHg 83%
06:00 +4°C° 0.1 mm 1 mps 744 mmHg 85%
07:00 +4°C° 0 mm 1 mps 744 mmHg 87%
08:00 +5°C° 0 mm 1 mps 744 mmHg 84%
09:00 +5°C° 0 mm 1 mps 745 mmHg 82%
10:00 +6°C° 0 mm 1 mps 745 mmHg 80%
11:00 +6°C° 0.1 mm 1 mps 744 mmHg 81%
12:00 +6°C° 0.1 mm 1 mps 744 mmHg 82%
13:00 +6°C° 0 mm 1 mps 744 mmHg 84%
14:00 +5°C° 0 mm 1 mps 744 mmHg 86%
15:00 +5°C° 0 mm 1 mps 744 mmHg 87%
16:00 +5°C° 0 mm 1 mps 744 mmHg 88%
17:00 +4°C° 0 mm 0 mps 744 mmHg 88%
18:00 +4°C° 0 mm 0 mps 744 mmHg 87%
19:00 +4°C° 0 mm 0 mps 744 mmHg 87%
20:00 +4°C° 0 mm 0 mps 744 mmHg 88%
21:00 +3°C° 0 mm 0 mps 744 mmHg 89%
22:00 +3°C° 0 mm 0 mps 745 mmHg 90%
23:00 +3°C° 0 mm 0 mps 744 mmHg 90%

Tomorrow, 28 November, Saturday

Time Temperature Precipitation Wind Pressure Humidity
00:00 +4°C° 0 mm 1 mps 744 mmHg 91%
01:00 +4°C° 0 mm 1 mps 744 mmHg 91%
02:00 +4°C° 0 mm 1 mps 744 mmHg 91%
03:00 +4°C° 0 mm 1 mps 744 mmHg 91%
04:00 +4°C° 0 mm 1 mps 744 mmHg 91%
05:00 +3°C° 0 mm 1 mps 744 mmHg 92%
06:00 +3°C° 0 mm 1 mps 744 mmHg 92%
07:00 +2°C° 0 mm 1 mps 744 mmHg 92%
08:00 +3°C° 0 mm 1 mps 744 mmHg 91%
09:00 +3°C° 0 mm 1 mps 745 mmHg 90%
10:00 +3°C° 0 mm 1 mps 745 mmHg 88%
11:00 +3°C° 0 mm 2 mps 745 mmHg 85%
12:00 +3°C° 0 mm 2 mps 745 mmHg 81%
13:00 +3°C° 0 mm 2 mps 745 mmHg 78%
14:00 +3°C° 0 mm 2 mps 745 mmHg 78%
15:00 +3°C° 0 mm 2 mps 745 mmHg 79%
16:00 +2°C° 0 mm 2 mps 745 mmHg 80%
17:00 +2°C° 0 mm 2 mps 745 mmHg 82%
18:00 +2°C° 0 mm 2 mps 745 mmHg 84%
19:00 +2°C° 0 mm 2 mps 745 mmHg 86%
20:00 +2°C° 0 mm 2 mps 746 mmHg 85%
21:00 +2°C° 0 mm 2 mps 746 mmHg 84%
22:00 +2°C° 0 mm 2 mps 746 mmHg 84%
23:00 +2°C° 0 mm 1 mps 746 mmHg 86%

Day after tomorrow, 29 November, Sunday

Time Temperature Precipitation Wind Pressure Humidity
00:00 +2°C° 0 mm 1 mps 746 mmHg 88%
01:00 +2°C° 0 mm 1 mps 746 mmHg 91%
02:00 +1°C° 0 mm 2 mps 745 mmHg 91%
03:00 -1°C° 0 mm 2 mps 745 mmHg 92%
04:00 -1°C° 0 mm 2 mps 745 mmHg 93%
05:00 -1°C° 0.1 mm 2 mps 745 mmHg 94%
06:00 -1°C° 0.1 mm 3 mps 745 mmHg 95%
07:00 -1°C° 0.1 mm 3 mps 745 mmHg 96%
08:00 -1°C° 0.2 mm 3 mps 745 mmHg 95%
09:00 0°C° 0.2 mm 3 mps 745 mmHg 94%
10:00 0°C° 0.2 mm 3 mps 745 mmHg 93%
11:00 0°C° 0.1 mm 3 mps 745 mmHg 92%
12:00 0°C° 0.1 mm 3 mps 744 mmHg 91%
13:00 +1°C° 0.1 mm 3 mps 744 mmHg 90%
14:00 0°C° 0.1 mm 3 mps 744 mmHg 92%
15:00 0°C° 0.1 mm 3 mps 744 mmHg 94%
16:00 0°C° 0.1 mm 3 mps 744 mmHg 97%
17:00 0°C° 0.3 mm 3 mps 744 mmHg 96%
18:00 0°C° 0.3 mm 3 mps 744 mmHg 95%
19:00 0°C° 0.3 mm 3 mps 744 mmHg 95%
20:00 0°C° 0.2 mm 3 mps 744 mmHg 96%
21:00 +1°C° 0.2 mm 2 mps 744 mmHg 96%
22:00 +1°C° 0.2 mm 2 mps 745 mmHg 97%
23:00 +1°C° 0.3 mm 2 mps 745 mmHg 97%

30 November, Monday

Time Temperature Precipitation Wind Pressure Humidity
00:00 +1°C° 0.3 mm 2 mps 745 mmHg 97%
01:00 +1°C° 0.3 mm 2 mps 745 mmHg 97%
02:00 +1°C° 0.2 mm 2 mps 745 mmHg 97%
03:00 -1°C° 0.2 mm 2 mps 745 mmHg 97%
04:00 -1°C° 0.2 mm 2 mps 745 mmHg 97%
05:00 -1°C° 0.2 mm 2 mps 746 mmHg 97%
06:00 +1°C° 0.2 mm 1 mps 746 mmHg 97%
07:00 +1°C° 0.2 mm 1 mps 746 mmHg 97%
08:00 +1°C° 0.1 mm 1 mps 747 mmHg 96%
09:00 +1°C° 0.1 mm 1 mps 747 mmHg 95%
10:00 +2°C° 0.1 mm 1 mps 747 mmHg 94%
11:00 +2°C° 0.1 mm 1 mps 747 mmHg 93%
12:00 +2°C° 0.1 mm 1 mps 747 mmHg 92%
13:00 +1°C° 0.1 mm 2 mps 747 mmHg 91%
14:00 +2°C° 0 mm 1 mps 747 mmHg 91%
15:00 +1°C° 0 mm 1 mps 747 mmHg 92%
16:00 +1°C° 0 mm 1 mps 747 mmHg 93%
17:00 0°C° 0 mm 1 mps 747 mmHg 93%
18:00 0°C° 0 mm 1 mps 747 mmHg 93%
19:00 -1°C° 0 mm 1 mps 747 mmHg 92%
20:00 -1°C° 0 mm 1 mps 747 mmHg 92%
21:00 -1°C° 0 mm 1 mps 747 mmHg 92%
22:00 -3°C° 0 mm 2 mps 747 mmHg 91%
23:00 -3°C° 0 mm 2 mps 746 mmHg 91%

1 December, Tuesday

Time Temperature Precipitation Wind Pressure Humidity
00:00 -3°C° 0 mm 2 mps 746 mmHg 90%
01:00 -3°C° 0 mm 2 mps 745 mmHg 89%
02:00 -3°C° 0 mm 2 mps 745 mmHg 88%
03:00 -3°C° 0 mm 2 mps 745 mmHg 86%
04:00 -3°C° 0 mm 2 mps 744 mmHg 85%
05:00 -4°C° 0 mm 3 mps 744 mmHg 84%
06:00 -2°C° 0 mm 3 mps 744 mmHg 84%
07:00 -2°C° 0 mm 3 mps 743 mmHg 84%
08:00 -2°C° 0 mm 3 mps 743 mmHg 82%
09:00 -1°C° 0 mm 3 mps 743 mmHg 80%
10:00 0°C° 0 mm 3 mps 743 mmHg 78%
11:00 0°C° 0 mm 3 mps 742 mmHg 78%
12:00 0°C° 0 mm 3 mps 742 mmHg 78%
13:00 +1°C° 0 mm 3 mps 742 mmHg 78%
14:00 0°C° 0 mm 3 mps 742 mmHg 80%
15:00 0°C° 0 mm 3 mps 741 mmHg 82%
16:00 -1°C° 0 mm 3 mps 741 mmHg 85%
17:00 -1°C° 0 mm 3 mps 741 mmHg 85%
18:00 -1°C° 0 mm 3 mps 741 mmHg 85%
19:00 -1°C° 0 mm 3 mps 742 mmHg 86%
20:00 -1°C° 0 mm 2 mps 742 mmHg 86%
21:00 -2°C° 0 mm 2 mps 742 mmHg 87%
22:00 -2°C° 0 mm 2 mps 742 mmHg 87%
23:00 -2°C° 0 mm 2 mps 742 mmHg 88%

2 December, Wednesday

Time Temperature Precipitation Wind Pressure Humidity
00:00 -2°C° 0 mm 2 mps 742 mmHg 88%
01:00 -2°C° 0 mm 2 mps 742 mmHg 88%
02:00 -2°C° 0 mm 2 mps 742 mmHg 88%
03:00 -2°C° 0 mm 2 mps 742 mmHg 88%
04:00 -3°C° 0 mm 2 mps 742 mmHg 89%
05:00 -3°C° 0 mm 2 mps 742 mmHg 89%
06:00 -3°C° 0 mm 2 mps 742 mmHg 89%
07:00 -3°C° 0 mm 2 mps 742 mmHg 89%
08:00 -2°C° 0 mm 2 mps 742 mmHg 86%
09:00 -2°C° 0 mm 2 mps 742 mmHg 84%
10:00 -1°C° 0 mm 2 mps 743 mmHg 81%
11:00 +1°C° 0 mm 2 mps 742 mmHg 81%
12:00 +1°C° 0 mm 2 mps 742 mmHg 80%
13:00 +2°C° 0 mm 2 mps 742 mmHg 79%
14:00 +1°C° 0 mm 2 mps 742 mmHg 82%
15:00 -1°C° 0 mm 2 mps 742 mmHg 85%
16:00 -2°C° 0 mm 2 mps 742 mmHg 88%
17:00 -2°C° 0 mm 2 mps 742 mmHg 88%
18:00 -2°C° 0 mm 2 mps 742 mmHg 89%
19:00 -2°C° 0 mm 2 mps 742 mmHg 89%
20:00 0°C° 0 mm 1 mps 742 mmHg 89%
21:00 0°C° 0 mm 1 mps 742 mmHg 89%
22:00 -1°C° 0 mm 1 mps 742 mmHg 89%
23:00 -1°C° 0 mm 1 mps 742 mmHg 89%
Show more

We Need Your Consent

Meteoprog and our Service Providers may store and access personal data such as cookies, device identifiers or other similar technologies on your device and process such data to personalise content and ads, as well as provide social media features and to analyse the traffic.

  • Store and/or access information on your device

    Cookies, device identifiers or other information can be stored or accessed on your device for the purposes indicated above.

  • Personalised ads and content, ad and content measurement, audience insights, and products development

    Ads and content can be personalised based on a profile. More data can be added to better personalise ads and content. Ad and content performance can be measured. Insights about the audience who saw the ads and content can be derived. Such data can be used to develop or improve user’s experience, systems and software.

By clicking ‘I Agree’ you will allow the use of indicated cookies, device identifiers, web beacons or other similar technologies. Your settings can be changed in the browser on your device.

For certain purposes, legitimate interests may be relied on, rather than consent. You can read more about this in our Privacy and Cookie Policy.